Skip Page Navigation
NASA JPL Caltech
NASA Logo - Jet Propulsion Laboratory + View the NASA Portal
+ Center for Near-Earth Object Studies
JPL Home Earth Solar System Stars & Galaxies Technology
JPL Solar System Dynamics
BODIES ORBITS EPHEMERIDES TOOLS PHYSICAL DATA DISCOVERY FAQ SITE MAP
IMPORTANT: The SSD Announcement email list is now available. Major changes are coming in the near future, including possible hostname and/or URL changes. To be notified of such changes, subscribe to this email list.

Please visit this page for more details.


JPL Small-Body Database Browser
Search: [ help ]  
58461 (1996 ML)
Classification: Main-belt Asteroid          SPK-ID: 2058461
Ephemeris | Orbit Diagram | Orbital Elements | Mission Design | Physical Parameters | Discovery Circumstances | Close-Approach Data ]

[ show orbit diagram ]
Orbital Elements at Epoch 2458600.5 (2019-Apr-27.0) TDB
Reference: JPL 17 (heliocentric ecliptic J2000)
 Element Value Uncertainty (1-sigma)   Units 
e .08209398121861593 4.2278e-08  
a 2.772135122832 1.5073e-08 au
q 2.544559514122764 1.1886e-07 au
i 1.301996732034881 4.417e-06 deg
node 33.19623009798926 0.00021106 deg
peri 126.5042823020138 0.00021287 deg
M 65.73604820247363 2.7244e-05 deg
tp 2458292.662791899006
(2018-Jun-23.16279190)
0.00012738 TDB
period 1685.854229859041
4.62
1.375e-05
3.765e-08
d
yr
n .2135415942991113 1.7417e-09 deg/d
Q 2.999710731541236 1.6311e-08 au
  Orbit Determination Parameters
   # obs. used (total)      772  
   data-arc span      10266 days (28.11 yr)  
   first obs. used      1991-04-14  
   last obs. used      2019-05-23  
   planetary ephem.      DE431  
   SB-pert. ephem.      SB431-N16  
   condition code      0  
   norm. resid. RMS      .55124  
   source      ORB  
   producer      Otto Matic  
   solution date      2019-Jul-13 03:34:49  

Additional Information
 Earth MOID = 1.55387 au 
 Jupiter MOID = 1.97691 au 
 T_jup = 3.332 
[ show covariance matrix ]

Ephemeris | Orbit Diagram | Orbital Elements | Mission Design | Physical Parameters | Discovery Circumstances | Close-Approach Data ]

Physical Parameter Table
Parameter Symbol Value Units Sigma Reference Notes
absolute magnitude H 15.2   n/a MPO436190  

58461 (1996 ML)          Discovered 1996-Jun-22 by Comba, P. G. at Prescott
Reference: 20030614/Numbers.arcLast Updated: 2004-04-19

[ show close-approach data ]
Alternate Designations
 1996 ML = 2000 EV150 = 2000 GU8 
Ephemeris | Orbit Diagram | Orbital Elements | Mission Design | Physical Parameters | Discovery Circumstances | Close-Approach Data ]
ABOUT SSD CREDITS/AWARDS PRIVACY/COPYRIGHT GLOSSARY LINKS
FirstGov 2020-Jan-25 17:17 UT
(server date/time)  
NASA Home Page
Site Manager:   Ryan S. Park
Webmaster  Alan B. Chamberlin